Starlink 1767

operational
NORAD ID: 46345 Int'l Des: 2020-062 Owner: SPXS Country: US Constellation: starlink
LEOCIRCULAR

About Starlink 1767

Description loading...

Live Position

Loading 3D Globe...

Upcoming Passes

Altitude History

Altitude vs Time

uPlot chart will show altitude changes over time

Two-Line Element Set

1 46345U 20062W 25304.00002315 .00131222 00000-0 22588-2 0 9995
2 46345 53.0457 215.9454 0012421 66.5327 346.3199 15.50086812 5812
Epoch: Oct 31, 2025 • Age: 7 hours

Current Status

Altitude 441.7 km
Velocity 7.64 km/s
Sub-Earth Point -52.48°S, 9.7°W
Launch Date Sep 3, 2020
Age 5.1 years
Type internet

Technical Details

Classification Payload
Mass 260.00 kg
Dry Mass 248.00 kg
Total Mass 260.00 kg
Length 0.20 m
Diameter 2.80 m
Span 9.00 m
Shape Box + pan
Manufacturer SPXS
Bus Type Starlink
Phase Status In Orbit
Owner/State SPXS/US

Large Constellations

Loading constellations...